Погода в Новоселенгинске

Россия / Республика Бурятия     51°05′35″N   106°37′45″E
темп.,
°C
ветер,
м/с
пор.,
м/с
влажн.,
%
обл.,
%
осадки,
мм/ч
давл.,
гПа
погр.,
м
1 марта, пн
пн123:00−22ю11960 0.0 104020
02:00−23юв119834 0.0 103920
05:00−25ю1110026 0.0 103620
08:00−26ююз129942 0.0 103619
11:00−19юз238368 0.0 1032347
14:00−14юз347269 0.0 1028550
17:00−13юз24746 0.0 1025516
20:00−20ююв119324 0.0 102520
2 марта, вт
вт223:00−19вюв1192100 0.0 102120
02:00−21ююз119699 0.0 101920
05:00−22юз1197100 0.0 101620
08:00−23ю119777 0.0 101620
11:00−14ююз237511 0.0 1014304
14:00−8юз246725 0.0 1011467
17:00−7з127481 0.0 1010217
20:00−12с128888 0.0 101221
3 марта, ср
ср323:00−14зсз119198 0.1 101221
02:00−15зюз229279 0.1 101220
05:00−16юз119431 0.0 101220
08:00−16ю129553 0.0 101320
11:00−9ю128074 0.0 1011244
14:00−4зюз117151 0.0 1010521
17:00−5с357890 0.0 1011622
20:00−9с397794 0.0 1016426
4 марта, чт
чт423:00−11с31080100 0.0 1020568
02:00−15ссв3481100 0.0 102362
05:00−17ссз2283100 0.0 102720
08:00−19сз118490 0.0 103120
11:00−13з236883 0.0 1031441
14:00−10з236347 0.0 1031861
17:00−10сз126484 0.0 1032700
20:00−17всв118242 0.0 103620
5 марта, пт
пт523:00−18всв11863 0.0 103820
02:00−20в11901 0.0 103820
05:00−21вюв119638 0.0 103820
08:00−21в119852 0.0 103920
11:00−14ююв137869 0.0 1035378
14:00−8ююз367083 0.0 1031702
17:00−7юз267661 0.0 1029545
20:00−14ююз019278 0.0 102921